<?xml version="1.0" encoding="UTF-8" standalone="no" ?>
<gpx xmlns="http://www.topografix.com/GPX/1/1" xmlns:xsi="http://www.w3.org/2001/XMLSchema-instance" xsi:schemaLocation="http://www.topografix.com/GPX/1/1 http://www.topografix.com/GPX/1/1/gpx.xsd" version="1.1" creator="VisuGPX - https://www.visugpx.com">
  <metadata>
    <name>Neuvicoise 2024</name>
    <desc><![CDATA[Parcours créé sur Trace de Trail]]></desc>
  </metadata>
  <trk>
    <name><![CDATA[Marche Neuvicoise 2024 sur TraceDeTrail.fr]]></name>
    <extensions>
      <line xmlns="http://www.topografix.com/GPX/gpx_style/0/2">
        <color>FF0000</color>
        <width>4</width>
      </line>
    </extensions>
    <trkseg>
      <trkpt lat="45.3899" lon="2.29238">
        <ele>592</ele>
        <time>2024-09-12T18:42:14+00:00</time>
      </trkpt>
      <trkpt lat="45.39017" lon="2.29204">
        <ele>597</ele>
        <time>2024-09-12T18:42:17+00:00</time>
      </trkpt>
      <trkpt lat="45.39067" lon="2.29174">
        <ele>596</ele>
        <time>2024-09-12T18:42:20+00:00</time>
      </trkpt>
      <trkpt lat="45.39089" lon="2.29165">
        <ele>597</ele>
        <time>2024-09-12T18:42:23+00:00</time>
      </trkpt>
      <trkpt lat="45.391" lon="2.2909">
        <ele>596</ele>
        <time>2024-09-12T18:42:26+00:00</time>
      </trkpt>
      <trkpt lat="45.39102" lon="2.29058">
        <ele>596</ele>
        <time>2024-09-12T18:42:29+00:00</time>
      </trkpt>
      <trkpt lat="45.39112" lon="2.29023">
        <ele>594</ele>
        <time>2024-09-12T18:42:32+00:00</time>
      </trkpt>
      <trkpt lat="45.39133" lon="2.2899">
        <ele>593</ele>
        <time>2024-09-12T18:42:35+00:00</time>
      </trkpt>
      <trkpt lat="45.39137" lon="2.28964">
        <ele>593</ele>
        <time>2024-09-12T18:42:38+00:00</time>
      </trkpt>
      <trkpt lat="45.39156" lon="2.28927">
        <ele>599</ele>
        <time>2024-09-12T18:42:41+00:00</time>
      </trkpt>
      <trkpt lat="45.39185" lon="2.28889">
        <ele>600</ele>
        <time>2024-09-12T18:42:44+00:00</time>
      </trkpt>
      <trkpt lat="45.39187" lon="2.28853">
        <ele>601</ele>
        <time>2024-09-12T18:42:47+00:00</time>
      </trkpt>
      <trkpt lat="45.39189" lon="2.28814">
        <ele>600</ele>
        <time>2024-09-12T18:42:50+00:00</time>
      </trkpt>
      <trkpt lat="45.39194" lon="2.2877">
        <ele>600</ele>
        <time>2024-09-12T18:42:53+00:00</time>
      </trkpt>
      <trkpt lat="45.39221" lon="2.28744">
        <ele>598</ele>
        <time>2024-09-12T18:42:56+00:00</time>
      </trkpt>
      <trkpt lat="45.39249" lon="2.28737">
        <ele>597</ele>
        <time>2024-09-12T18:42:59+00:00</time>
      </trkpt>
      <trkpt lat="45.39315" lon="2.28723">
        <ele>595</ele>
        <time>2024-09-12T18:43:02+00:00</time>
      </trkpt>
      <trkpt lat="45.39341" lon="2.28708">
        <ele>596</ele>
        <time>2024-09-12T18:43:05+00:00</time>
      </trkpt>
      <trkpt lat="45.39378" lon="2.28687">
        <ele>597</ele>
        <time>2024-09-12T18:43:08+00:00</time>
      </trkpt>
      <trkpt lat="45.39398" lon="2.28657">
        <ele>597</ele>
        <time>2024-09-12T18:43:11+00:00</time>
      </trkpt>
      <trkpt lat="45.39416" lon="2.2863">
        <ele>601</ele>
        <time>2024-09-12T18:43:14+00:00</time>
      </trkpt>
      <trkpt lat="45.39438" lon="2.28595">
        <ele>600</ele>
        <time>2024-09-12T18:43:17+00:00</time>
      </trkpt>
      <trkpt lat="45.39453" lon="2.28565">
        <ele>600</ele>
        <time>2024-09-12T18:43:20+00:00</time>
      </trkpt>
      <trkpt lat="45.39457" lon="2.28529">
        <ele>599</ele>
        <time>2024-09-12T18:43:23+00:00</time>
      </trkpt>
      <trkpt lat="45.39477" lon="2.2846">
        <ele>599</ele>
        <time>2024-09-12T18:43:26+00:00</time>
      </trkpt>
      <trkpt lat="45.39466" lon="2.28435">
        <ele>599</ele>
        <time>2024-09-12T18:43:29+00:00</time>
      </trkpt>
      <trkpt lat="45.39439" lon="2.28453">
        <ele>608</ele>
        <time>2024-09-12T18:43:32+00:00</time>
      </trkpt>
      <trkpt lat="45.39392" lon="2.28485">
        <ele>619</ele>
        <time>2024-09-12T18:43:35+00:00</time>
      </trkpt>
      <trkpt lat="45.39353" lon="2.2851">
        <ele>618</ele>
        <time>2024-09-12T18:43:38+00:00</time>
      </trkpt>
      <trkpt lat="45.39326" lon="2.28524">
        <ele>618</ele>
        <time>2024-09-12T18:43:41+00:00</time>
      </trkpt>
      <trkpt lat="45.39302" lon="2.28534">
        <ele>626</ele>
        <time>2024-09-12T18:43:44+00:00</time>
      </trkpt>
      <trkpt lat="45.39278" lon="2.28543">
        <ele>629</ele>
        <time>2024-09-12T18:43:47+00:00</time>
      </trkpt>
      <trkpt lat="45.39252" lon="2.28552">
        <ele>630</ele>
        <time>2024-09-12T18:43:50+00:00</time>
      </trkpt>
      <trkpt lat="45.39226" lon="2.2855">
        <ele>631</ele>
        <time>2024-09-12T18:43:53+00:00</time>
      </trkpt>
      <trkpt lat="45.39186" lon="2.28544">
        <ele>637</ele>
        <time>2024-09-12T18:43:56+00:00</time>
      </trkpt>
      <trkpt lat="45.39167" lon="2.28526">
        <ele>637</ele>
        <time>2024-09-12T18:43:59+00:00</time>
      </trkpt>
      <trkpt lat="45.39183" lon="2.28484">
        <ele>641</ele>
        <time>2024-09-12T18:44:02+00:00</time>
      </trkpt>
      <trkpt lat="45.39186" lon="2.28449">
        <ele>639</ele>
        <time>2024-09-12T18:44:05+00:00</time>
      </trkpt>
      <trkpt lat="45.39149" lon="2.28415">
        <ele>641</ele>
        <time>2024-09-12T18:44:08+00:00</time>
      </trkpt>
      <trkpt lat="45.39166" lon="2.28361">
        <ele>644</ele>
        <time>2024-09-12T18:44:11+00:00</time>
      </trkpt>
      <trkpt lat="45.39191" lon="2.28314">
        <ele>643</ele>
        <time>2024-09-12T18:44:14+00:00</time>
      </trkpt>
      <trkpt lat="45.39201" lon="2.28279">
        <ele>643</ele>
        <time>2024-09-12T18:44:17+00:00</time>
      </trkpt>
      <trkpt lat="45.39186" lon="2.28234">
        <ele>644</ele>
        <time>2024-09-12T18:44:20+00:00</time>
      </trkpt>
      <trkpt lat="45.39164" lon="2.28217">
        <ele>644</ele>
        <time>2024-09-12T18:44:23+00:00</time>
      </trkpt>
      <trkpt lat="45.39139" lon="2.28217">
        <ele>644</ele>
        <time>2024-09-12T18:44:26+00:00</time>
      </trkpt>
      <trkpt lat="45.39113" lon="2.28217">
        <ele>644</ele>
        <time>2024-09-12T18:44:29+00:00</time>
      </trkpt>
      <trkpt lat="45.39066" lon="2.28221">
        <ele>641</ele>
        <time>2024-09-12T18:44:32+00:00</time>
      </trkpt>
      <trkpt lat="45.39058" lon="2.28278">
        <ele>641</ele>
        <time>2024-09-12T18:44:35+00:00</time>
      </trkpt>
      <trkpt lat="45.39054" lon="2.28323">
        <ele>641</ele>
        <time>2024-09-12T18:44:38+00:00</time>
      </trkpt>
      <trkpt lat="45.39043" lon="2.28356">
        <ele>641</ele>
        <time>2024-09-12T18:44:41+00:00</time>
      </trkpt>
      <trkpt lat="45.39036" lon="2.28382">
        <ele>641</ele>
        <time>2024-09-12T18:44:44+00:00</time>
      </trkpt>
      <trkpt lat="45.39041" lon="2.28409">
        <ele>641</ele>
        <time>2024-09-12T18:44:47+00:00</time>
      </trkpt>
      <trkpt lat="45.39034" lon="2.28408">
        <ele>641</ele>
        <time>2024-09-12T18:44:50+00:00</time>
      </trkpt>
      <trkpt lat="45.39015" lon="2.28389">
        <ele>641</ele>
        <time>2024-09-12T18:44:53+00:00</time>
      </trkpt>
      <trkpt lat="45.38991" lon="2.28376">
        <ele>642</ele>
        <time>2024-09-12T18:44:56+00:00</time>
      </trkpt>
      <trkpt lat="45.38971" lon="2.28376">
        <ele>640</ele>
        <time>2024-09-12T18:44:59+00:00</time>
      </trkpt>
      <trkpt lat="45.38946" lon="2.28389">
        <ele>642</ele>
        <time>2024-09-12T18:45:02+00:00</time>
      </trkpt>
      <trkpt lat="45.38901" lon="2.28373">
        <ele>642</ele>
        <time>2024-09-12T18:45:05+00:00</time>
      </trkpt>
      <trkpt lat="45.38878" lon="2.28357">
        <ele>638</ele>
        <time>2024-09-12T18:45:08+00:00</time>
      </trkpt>
      <trkpt lat="45.38847" lon="2.28336">
        <ele>635</ele>
        <time>2024-09-12T18:45:11+00:00</time>
      </trkpt>
      <trkpt lat="45.38824" lon="2.2835">
        <ele>635</ele>
        <time>2024-09-12T18:45:14+00:00</time>
      </trkpt>
      <trkpt lat="45.38798" lon="2.28372">
        <ele>636</ele>
        <time>2024-09-12T18:45:17+00:00</time>
      </trkpt>
      <trkpt lat="45.38763" lon="2.2836">
        <ele>638</ele>
        <time>2024-09-12T18:45:20+00:00</time>
      </trkpt>
      <trkpt lat="45.38747" lon="2.28337">
        <ele>637</ele>
        <time>2024-09-12T18:45:23+00:00</time>
      </trkpt>
      <trkpt lat="45.38728" lon="2.28297">
        <ele>637</ele>
        <time>2024-09-12T18:45:26+00:00</time>
      </trkpt>
      <trkpt lat="45.38693" lon="2.28281">
        <ele>633</ele>
        <time>2024-09-12T18:45:29+00:00</time>
      </trkpt>
      <trkpt lat="45.38674" lon="2.28282">
        <ele>632</ele>
        <time>2024-09-12T18:45:32+00:00</time>
      </trkpt>
      <trkpt lat="45.38681" lon="2.2831">
        <ele>628</ele>
        <time>2024-09-12T18:45:35+00:00</time>
      </trkpt>
      <trkpt lat="45.38666" lon="2.2833">
        <ele>624</ele>
        <time>2024-09-12T18:45:38+00:00</time>
      </trkpt>
      <trkpt lat="45.38641" lon="2.28325">
        <ele>625</ele>
        <time>2024-09-12T18:45:41+00:00</time>
      </trkpt>
      <trkpt lat="45.38608" lon="2.2833">
        <ele>627</ele>
        <time>2024-09-12T18:45:44+00:00</time>
      </trkpt>
      <trkpt lat="45.38563" lon="2.28341">
        <ele>644</ele>
        <time>2024-09-12T18:45:47+00:00</time>
      </trkpt>
      <trkpt lat="45.38532" lon="2.28344">
        <ele>642</ele>
        <time>2024-09-12T18:45:50+00:00</time>
      </trkpt>
      <trkpt lat="45.385" lon="2.2836">
        <ele>640</ele>
        <time>2024-09-12T18:45:53+00:00</time>
      </trkpt>
      <trkpt lat="45.38472" lon="2.28372">
        <ele>636</ele>
        <time>2024-09-12T18:45:56+00:00</time>
      </trkpt>
      <trkpt lat="45.38446" lon="2.28377">
        <ele>634</ele>
        <time>2024-09-12T18:45:59+00:00</time>
      </trkpt>
      <trkpt lat="45.38425" lon="2.28384">
        <ele>629</ele>
        <time>2024-09-12T18:46:02+00:00</time>
      </trkpt>
      <trkpt lat="45.38403" lon="2.28418">
        <ele>629</ele>
        <time>2024-09-12T18:46:05+00:00</time>
      </trkpt>
      <trkpt lat="45.38383" lon="2.28461">
        <ele>637</ele>
        <time>2024-09-12T18:46:08+00:00</time>
      </trkpt>
      <trkpt lat="45.38382" lon="2.28498">
        <ele>640</ele>
        <time>2024-09-12T18:46:11+00:00</time>
      </trkpt>
      <trkpt lat="45.38383" lon="2.2855">
        <ele>646</ele>
        <time>2024-09-12T18:46:14+00:00</time>
      </trkpt>
      <trkpt lat="45.38385" lon="2.2859">
        <ele>650</ele>
        <time>2024-09-12T18:46:17+00:00</time>
      </trkpt>
      <trkpt lat="45.38395" lon="2.2865">
        <ele>659</ele>
        <time>2024-09-12T18:46:20+00:00</time>
      </trkpt>
      <trkpt lat="45.38385" lon="2.28691">
        <ele>660</ele>
        <time>2024-09-12T18:46:23+00:00</time>
      </trkpt>
      <trkpt lat="45.38371" lon="2.28738">
        <ele>662</ele>
        <time>2024-09-12T18:46:26+00:00</time>
      </trkpt>
      <trkpt lat="45.38359" lon="2.28767">
        <ele>662</ele>
        <time>2024-09-12T18:46:29+00:00</time>
      </trkpt>
      <trkpt lat="45.38304" lon="2.28748">
        <ele>655</ele>
        <time>2024-09-12T18:46:32+00:00</time>
      </trkpt>
      <trkpt lat="45.38285" lon="2.28749">
        <ele>649</ele>
        <time>2024-09-12T18:46:35+00:00</time>
      </trkpt>
      <trkpt lat="45.38251" lon="2.28774">
        <ele>647</ele>
        <time>2024-09-12T18:46:38+00:00</time>
      </trkpt>
      <trkpt lat="45.38227" lon="2.28808">
        <ele>647</ele>
        <time>2024-09-12T18:46:41+00:00</time>
      </trkpt>
      <trkpt lat="45.38212" lon="2.28836">
        <ele>644</ele>
        <time>2024-09-12T18:46:44+00:00</time>
      </trkpt>
      <trkpt lat="45.38196" lon="2.28865">
        <ele>641</ele>
        <time>2024-09-12T18:46:47+00:00</time>
      </trkpt>
      <trkpt lat="45.38166" lon="2.28829">
        <ele>640</ele>
        <time>2024-09-12T18:46:50+00:00</time>
      </trkpt>
      <trkpt lat="45.3818" lon="2.28791">
        <ele>640</ele>
        <time>2024-09-12T18:46:53+00:00</time>
      </trkpt>
      <trkpt lat="45.38203" lon="2.28727">
        <ele>639</ele>
        <time>2024-09-12T18:46:56+00:00</time>
      </trkpt>
      <trkpt lat="45.38179" lon="2.28705">
        <ele>641</ele>
        <time>2024-09-12T18:46:59+00:00</time>
      </trkpt>
      <trkpt lat="45.38141" lon="2.28669">
        <ele>643</ele>
        <time>2024-09-12T18:47:02+00:00</time>
      </trkpt>
      <trkpt lat="45.38114" lon="2.28702">
        <ele>647</ele>
        <time>2024-09-12T18:47:05+00:00</time>
      </trkpt>
      <trkpt lat="45.38093" lon="2.28719">
        <ele>647</ele>
        <time>2024-09-12T18:47:08+00:00</time>
      </trkpt>
      <trkpt lat="45.38072" lon="2.28737">
        <ele>647</ele>
        <time>2024-09-12T18:47:11+00:00</time>
      </trkpt>
      <trkpt lat="45.38043" lon="2.28755">
        <ele>640</ele>
        <time>2024-09-12T18:47:14+00:00</time>
      </trkpt>
      <trkpt lat="45.38013" lon="2.28774">
        <ele>640</ele>
        <time>2024-09-12T18:47:17+00:00</time>
      </trkpt>
      <trkpt lat="45.3798" lon="2.28796">
        <ele>641</ele>
        <time>2024-09-12T18:47:20+00:00</time>
      </trkpt>
      <trkpt lat="45.37947" lon="2.28811">
        <ele>641</ele>
        <time>2024-09-12T18:47:23+00:00</time>
      </trkpt>
      <trkpt lat="45.37914" lon="2.28826">
        <ele>641</ele>
        <time>2024-09-12T18:47:26+00:00</time>
      </trkpt>
      <trkpt lat="45.37856" lon="2.28854">
        <ele>638</ele>
        <time>2024-09-12T18:47:29+00:00</time>
      </trkpt>
      <trkpt lat="45.37825" lon="2.28889">
        <ele>636</ele>
        <time>2024-09-12T18:47:32+00:00</time>
      </trkpt>
      <trkpt lat="45.37803" lon="2.28904">
        <ele>635</ele>
        <time>2024-09-12T18:47:35+00:00</time>
      </trkpt>
      <trkpt lat="45.3778" lon="2.28901">
        <ele>635</ele>
        <time>2024-09-12T18:47:38+00:00</time>
      </trkpt>
      <trkpt lat="45.37755" lon="2.28884">
        <ele>635</ele>
        <time>2024-09-12T18:47:41+00:00</time>
      </trkpt>
      <trkpt lat="45.37715" lon="2.28858">
        <ele>629</ele>
        <time>2024-09-12T18:47:44+00:00</time>
      </trkpt>
      <trkpt lat="45.37673" lon="2.28847">
        <ele>624</ele>
        <time>2024-09-12T18:47:47+00:00</time>
      </trkpt>
      <trkpt lat="45.37654" lon="2.28812">
        <ele>620</ele>
        <time>2024-09-12T18:47:50+00:00</time>
      </trkpt>
      <trkpt lat="45.3763" lon="2.28857">
        <ele>618</ele>
        <time>2024-09-12T18:47:53+00:00</time>
      </trkpt>
      <trkpt lat="45.37603" lon="2.28887">
        <ele>614</ele>
        <time>2024-09-12T18:47:56+00:00</time>
      </trkpt>
      <trkpt lat="45.37574" lon="2.28907">
        <ele>611</ele>
        <time>2024-09-12T18:47:59+00:00</time>
      </trkpt>
      <trkpt lat="45.37549" lon="2.28915">
        <ele>611</ele>
        <time>2024-09-12T18:48:02+00:00</time>
      </trkpt>
      <trkpt lat="45.37516" lon="2.28914">
        <ele>612</ele>
        <time>2024-09-12T18:48:05+00:00</time>
      </trkpt>
      <trkpt lat="45.37494" lon="2.28914">
        <ele>612</ele>
        <time>2024-09-12T18:48:08+00:00</time>
      </trkpt>
      <trkpt lat="45.37462" lon="2.28917">
        <ele>613</ele>
        <time>2024-09-12T18:48:11+00:00</time>
      </trkpt>
      <trkpt lat="45.37431" lon="2.2892">
        <ele>612</ele>
        <time>2024-09-12T18:48:14+00:00</time>
      </trkpt>
      <trkpt lat="45.37397" lon="2.28923">
        <ele>613</ele>
        <time>2024-09-12T18:48:17+00:00</time>
      </trkpt>
      <trkpt lat="45.37366" lon="2.28941">
        <ele>614</ele>
        <time>2024-09-12T18:48:20+00:00</time>
      </trkpt>
      <trkpt lat="45.3733" lon="2.28957">
        <ele>614</ele>
        <time>2024-09-12T18:48:23+00:00</time>
      </trkpt>
      <trkpt lat="45.37309" lon="2.28971">
        <ele>614</ele>
        <time>2024-09-12T18:48:26+00:00</time>
      </trkpt>
      <trkpt lat="45.37293" lon="2.28995">
        <ele>614</ele>
        <time>2024-09-12T18:48:29+00:00</time>
      </trkpt>
      <trkpt lat="45.37273" lon="2.29013">
        <ele>614</ele>
        <time>2024-09-12T18:48:32+00:00</time>
      </trkpt>
      <trkpt lat="45.37253" lon="2.29031">
        <ele>617</ele>
        <time>2024-09-12T18:48:35+00:00</time>
      </trkpt>
      <trkpt lat="45.37228" lon="2.29082">
        <ele>622</ele>
        <time>2024-09-12T18:48:38+00:00</time>
      </trkpt>
      <trkpt lat="45.37217" lon="2.29107">
        <ele>619</ele>
        <time>2024-09-12T18:48:41+00:00</time>
      </trkpt>
      <trkpt lat="45.37199" lon="2.29132">
        <ele>617</ele>
        <time>2024-09-12T18:48:44+00:00</time>
      </trkpt>
      <trkpt lat="45.37165" lon="2.29159">
        <ele>617</ele>
        <time>2024-09-12T18:48:47+00:00</time>
      </trkpt>
      <trkpt lat="45.3713" lon="2.29183">
        <ele>618</ele>
        <time>2024-09-12T18:48:50+00:00</time>
      </trkpt>
      <trkpt lat="45.37095" lon="2.29194">
        <ele>619</ele>
        <time>2024-09-12T18:48:53+00:00</time>
      </trkpt>
      <trkpt lat="45.37062" lon="2.29191">
        <ele>620</ele>
        <time>2024-09-12T18:48:56+00:00</time>
      </trkpt>
      <trkpt lat="45.37036" lon="2.29184">
        <ele>622</ele>
        <time>2024-09-12T18:48:59+00:00</time>
      </trkpt>
      <trkpt lat="45.37003" lon="2.29176">
        <ele>622</ele>
        <time>2024-09-12T18:49:02+00:00</time>
      </trkpt>
      <trkpt lat="45.36961" lon="2.29167">
        <ele>620</ele>
        <time>2024-09-12T18:49:05+00:00</time>
      </trkpt>
      <trkpt lat="45.36936" lon="2.29166">
        <ele>619</ele>
        <time>2024-09-12T18:49:08+00:00</time>
      </trkpt>
      <trkpt lat="45.36905" lon="2.2917">
        <ele>619</ele>
        <time>2024-09-12T18:49:11+00:00</time>
      </trkpt>
      <trkpt lat="45.36875" lon="2.29177">
        <ele>618</ele>
        <time>2024-09-12T18:49:14+00:00</time>
      </trkpt>
      <trkpt lat="45.36848" lon="2.29193">
        <ele>618</ele>
        <time>2024-09-12T18:49:17+00:00</time>
      </trkpt>
      <trkpt lat="45.36832" lon="2.2921">
        <ele>618</ele>
        <time>2024-09-12T18:49:20+00:00</time>
      </trkpt>
      <trkpt lat="45.36769" lon="2.29241">
        <ele>596</ele>
        <time>2024-09-12T18:49:23+00:00</time>
      </trkpt>
      <trkpt lat="45.36744" lon="2.29245">
        <ele>596</ele>
        <time>2024-09-12T18:49:26+00:00</time>
      </trkpt>
      <trkpt lat="45.36716" lon="2.2925">
        <ele>595</ele>
        <time>2024-09-12T18:49:29+00:00</time>
      </trkpt>
      <trkpt lat="45.36691" lon="2.29264">
        <ele>594</ele>
        <time>2024-09-12T18:49:32+00:00</time>
      </trkpt>
      <trkpt lat="45.36654" lon="2.29285">
        <ele>590</ele>
        <time>2024-09-12T18:49:35+00:00</time>
      </trkpt>
      <trkpt lat="45.36614" lon="2.29261">
        <ele>586</ele>
        <time>2024-09-12T18:49:38+00:00</time>
      </trkpt>
      <trkpt lat="45.36576" lon="2.29246">
        <ele>582</ele>
        <time>2024-09-12T18:49:41+00:00</time>
      </trkpt>
      <trkpt lat="45.36529" lon="2.29251">
        <ele>567</ele>
        <time>2024-09-12T18:49:44+00:00</time>
      </trkpt>
      <trkpt lat="45.36495" lon="2.29243">
        <ele>554</ele>
        <time>2024-09-12T18:49:47+00:00</time>
      </trkpt>
      <trkpt lat="45.36476" lon="2.29234">
        <ele>545</ele>
        <time>2024-09-12T18:49:50+00:00</time>
      </trkpt>
      <trkpt lat="45.36472" lon="2.29198">
        <ele>542</ele>
        <time>2024-09-12T18:49:53+00:00</time>
      </trkpt>
      <trkpt lat="45.36486" lon="2.29175">
        <ele>538</ele>
        <time>2024-09-12T18:49:56+00:00</time>
      </trkpt>
      <trkpt lat="45.36518" lon="2.29131">
        <ele>541</ele>
        <time>2024-09-12T18:49:59+00:00</time>
      </trkpt>
      <trkpt lat="45.36563" lon="2.29105">
        <ele>545</ele>
        <time>2024-09-12T18:50:02+00:00</time>
      </trkpt>
      <trkpt lat="45.3654" lon="2.29094">
        <ele>545</ele>
        <time>2024-09-12T18:50:05+00:00</time>
      </trkpt>
      <trkpt lat="45.36515" lon="2.291">
        <ele>536</ele>
        <time>2024-09-12T18:50:08+00:00</time>
      </trkpt>
      <trkpt lat="45.36474" lon="2.29104">
        <ele>534</ele>
        <time>2024-09-12T18:50:11+00:00</time>
      </trkpt>
      <trkpt lat="45.3645" lon="2.29098">
        <ele>533</ele>
        <time>2024-09-12T18:50:14+00:00</time>
      </trkpt>
      <trkpt lat="45.3643" lon="2.29093">
        <ele>532</ele>
        <time>2024-09-12T18:50:17+00:00</time>
      </trkpt>
      <trkpt lat="45.36408" lon="2.29092">
        <ele>529</ele>
        <time>2024-09-12T18:50:20+00:00</time>
      </trkpt>
      <trkpt lat="45.3639" lon="2.29085">
        <ele>529</ele>
        <time>2024-09-12T18:50:23+00:00</time>
      </trkpt>
      <trkpt lat="45.36372" lon="2.29077">
        <ele>531</ele>
        <time>2024-09-12T18:50:26+00:00</time>
      </trkpt>
      <trkpt lat="45.36355" lon="2.29049">
        <ele>533</ele>
        <time>2024-09-12T18:50:29+00:00</time>
      </trkpt>
      <trkpt lat="45.36297" lon="2.29003">
        <ele>537</ele>
        <time>2024-09-12T18:50:32+00:00</time>
      </trkpt>
      <trkpt lat="45.36254" lon="2.28978">
        <ele>539</ele>
        <time>2024-09-12T18:50:35+00:00</time>
      </trkpt>
      <trkpt lat="45.36229" lon="2.2897">
        <ele>538</ele>
        <time>2024-09-12T18:50:38+00:00</time>
      </trkpt>
      <trkpt lat="45.36211" lon="2.2896">
        <ele>538</ele>
        <time>2024-09-12T18:50:41+00:00</time>
      </trkpt>
      <trkpt lat="45.36196" lon="2.29">
        <ele>532</ele>
        <time>2024-09-12T18:50:44+00:00</time>
      </trkpt>
      <trkpt lat="45.36172" lon="2.29052">
        <ele>527</ele>
        <time>2024-09-12T18:50:47+00:00</time>
      </trkpt>
      <trkpt lat="45.36143" lon="2.29083">
        <ele>527</ele>
        <time>2024-09-12T18:50:50+00:00</time>
      </trkpt>
      <trkpt lat="45.36111" lon="2.29109">
        <ele>519</ele>
        <time>2024-09-12T18:50:53+00:00</time>
      </trkpt>
      <trkpt lat="45.36079" lon="2.29128">
        <ele>509</ele>
        <time>2024-09-12T18:50:56+00:00</time>
      </trkpt>
      <trkpt lat="45.36049" lon="2.29142">
        <ele>506</ele>
        <time>2024-09-12T18:50:59+00:00</time>
      </trkpt>
      <trkpt lat="45.36034" lon="2.29169">
        <ele>508</ele>
        <time>2024-09-12T18:51:02+00:00</time>
      </trkpt>
      <trkpt lat="45.36011" lon="2.29116">
        <ele>510</ele>
        <time>2024-09-12T18:51:05+00:00</time>
      </trkpt>
      <trkpt lat="45.35992" lon="2.29088">
        <ele>518</ele>
        <time>2024-09-12T18:51:08+00:00</time>
      </trkpt>
      <trkpt lat="45.35955" lon="2.2904">
        <ele>518</ele>
        <time>2024-09-12T18:51:11+00:00</time>
      </trkpt>
      <trkpt lat="45.35987" lon="2.28969">
        <ele>518</ele>
        <time>2024-09-12T18:51:14+00:00</time>
      </trkpt>
      <trkpt lat="45.35997" lon="2.28927">
        <ele>515</ele>
        <time>2024-09-12T18:51:17+00:00</time>
      </trkpt>
      <trkpt lat="45.35993" lon="2.2888">
        <ele>515</ele>
        <time>2024-09-12T18:51:20+00:00</time>
      </trkpt>
      <trkpt lat="45.36003" lon="2.28854">
        <ele>518</ele>
        <time>2024-09-12T18:51:23+00:00</time>
      </trkpt>
      <trkpt lat="45.36031" lon="2.2882">
        <ele>519</ele>
        <time>2024-09-12T18:51:26+00:00</time>
      </trkpt>
      <trkpt lat="45.36012" lon="2.28806">
        <ele>520</ele>
        <time>2024-09-12T18:51:29+00:00</time>
      </trkpt>
      <trkpt lat="45.3599" lon="2.28797">
        <ele>526</ele>
        <time>2024-09-12T18:51:32+00:00</time>
      </trkpt>
      <trkpt lat="45.35971" lon="2.28799">
        <ele>537</ele>
        <time>2024-09-12T18:51:35+00:00</time>
      </trkpt>
      <trkpt lat="45.35954" lon="2.28826">
        <ele>538</ele>
        <time>2024-09-12T18:51:38+00:00</time>
      </trkpt>
      <trkpt lat="45.35935" lon="2.28856">
        <ele>538</ele>
        <time>2024-09-12T18:51:41+00:00</time>
      </trkpt>
      <trkpt lat="45.35933" lon="2.28822">
        <ele>546</ele>
        <time>2024-09-12T18:51:44+00:00</time>
      </trkpt>
      <trkpt lat="45.35921" lon="2.28774">
        <ele>552</ele>
        <time>2024-09-12T18:51:47+00:00</time>
      </trkpt>
      <trkpt lat="45.35902" lon="2.28741">
        <ele>559</ele>
        <time>2024-09-12T18:51:50+00:00</time>
      </trkpt>
      <trkpt lat="45.35871" lon="2.28706">
        <ele>566</ele>
        <time>2024-09-12T18:51:53+00:00</time>
      </trkpt>
      <trkpt lat="45.35849" lon="2.28683">
        <ele>568</ele>
        <time>2024-09-12T18:51:56+00:00</time>
      </trkpt>
      <trkpt lat="45.35844" lon="2.2864">
        <ele>569</ele>
        <time>2024-09-12T18:51:59+00:00</time>
      </trkpt>
      <trkpt lat="45.35858" lon="2.28611">
        <ele>566</ele>
        <time>2024-09-12T18:52:02+00:00</time>
      </trkpt>
      <trkpt lat="45.35881" lon="2.28623">
        <ele>563</ele>
        <time>2024-09-12T18:52:05+00:00</time>
      </trkpt>
      <trkpt lat="45.35913" lon="2.28663">
        <ele>558</ele>
        <time>2024-09-12T18:52:08+00:00</time>
      </trkpt>
      <trkpt lat="45.35943" lon="2.28686">
        <ele>555</ele>
        <time>2024-09-12T18:52:11+00:00</time>
      </trkpt>
      <trkpt lat="45.35979" lon="2.28681">
        <ele>549</ele>
        <time>2024-09-12T18:52:14+00:00</time>
      </trkpt>
      <trkpt lat="45.35998" lon="2.28662">
        <ele>555</ele>
        <time>2024-09-12T18:52:17+00:00</time>
      </trkpt>
      <trkpt lat="45.36" lon="2.28619">
        <ele>555</ele>
        <time>2024-09-12T18:52:20+00:00</time>
      </trkpt>
      <trkpt lat="45.36038" lon="2.28593">
        <ele>556</ele>
        <time>2024-09-12T18:52:23+00:00</time>
      </trkpt>
      <trkpt lat="45.36014" lon="2.28535">
        <ele>563</ele>
        <time>2024-09-12T18:52:26+00:00</time>
      </trkpt>
      <trkpt lat="45.36023" lon="2.2849">
        <ele>570</ele>
        <time>2024-09-12T18:52:29+00:00</time>
      </trkpt>
      <trkpt lat="45.36027" lon="2.28438">
        <ele>587</ele>
        <time>2024-09-12T18:52:32+00:00</time>
      </trkpt>
      <trkpt lat="45.36027" lon="2.28401">
        <ele>589</ele>
        <time>2024-09-12T18:52:35+00:00</time>
      </trkpt>
      <trkpt lat="45.36024" lon="2.28365">
        <ele>589</ele>
        <time>2024-09-12T18:52:38+00:00</time>
      </trkpt>
      <trkpt lat="45.36055" lon="2.2834">
        <ele>587</ele>
        <time>2024-09-12T18:52:41+00:00</time>
      </trkpt>
      <trkpt lat="45.36071" lon="2.28304">
        <ele>587</ele>
        <time>2024-09-12T18:52:44+00:00</time>
      </trkpt>
      <trkpt lat="45.36071" lon="2.2827">
        <ele>587</ele>
        <time>2024-09-12T18:52:47+00:00</time>
      </trkpt>
      <trkpt lat="45.36049" lon="2.28231">
        <ele>591</ele>
        <time>2024-09-12T18:52:50+00:00</time>
      </trkpt>
      <trkpt lat="45.36021" lon="2.28184">
        <ele>595</ele>
        <time>2024-09-12T18:52:53+00:00</time>
      </trkpt>
      <trkpt lat="45.36006" lon="2.28157">
        <ele>595</ele>
        <time>2024-09-12T18:52:56+00:00</time>
      </trkpt>
      <trkpt lat="45.35991" lon="2.28128">
        <ele>594</ele>
        <time>2024-09-12T18:52:59+00:00</time>
      </trkpt>
      <trkpt lat="45.35975" lon="2.28074">
        <ele>594</ele>
        <time>2024-09-12T18:53:02+00:00</time>
      </trkpt>
      <trkpt lat="45.35963" lon="2.28053">
        <ele>597</ele>
        <time>2024-09-12T18:53:05+00:00</time>
      </trkpt>
      <trkpt lat="45.35912" lon="2.28033">
        <ele>600</ele>
        <time>2024-09-12T18:53:08+00:00</time>
      </trkpt>
      <trkpt lat="45.35892" lon="2.28017">
        <ele>602</ele>
        <time>2024-09-12T18:53:11+00:00</time>
      </trkpt>
      <trkpt lat="45.35875" lon="2.27993">
        <ele>605</ele>
        <time>2024-09-12T18:53:14+00:00</time>
      </trkpt>
      <trkpt lat="45.35859" lon="2.27968">
        <ele>602</ele>
        <time>2024-09-12T18:53:17+00:00</time>
      </trkpt>
      <trkpt lat="45.35834" lon="2.27935">
        <ele>600</ele>
        <time>2024-09-12T18:53:20+00:00</time>
      </trkpt>
      <trkpt lat="45.35814" lon="2.27917">
        <ele>595</ele>
        <time>2024-09-12T18:53:23+00:00</time>
      </trkpt>
      <trkpt lat="45.35794" lon="2.2791">
        <ele>591</ele>
        <time>2024-09-12T18:53:26+00:00</time>
      </trkpt>
      <trkpt lat="45.3577" lon="2.27908">
        <ele>591</ele>
        <time>2024-09-12T18:53:29+00:00</time>
      </trkpt>
      <trkpt lat="45.35764" lon="2.2793">
        <ele>594</ele>
        <time>2024-09-12T18:53:32+00:00</time>
      </trkpt>
      <trkpt lat="45.35751" lon="2.27966">
        <ele>596</ele>
        <time>2024-09-12T18:53:35+00:00</time>
      </trkpt>
      <trkpt lat="45.3574" lon="2.28001">
        <ele>598</ele>
        <time>2024-09-12T18:53:38+00:00</time>
      </trkpt>
      <trkpt lat="45.3574" lon="2.28047">
        <ele>598</ele>
        <time>2024-09-12T18:53:41+00:00</time>
      </trkpt>
      <trkpt lat="45.35728" lon="2.28084">
        <ele>598</ele>
        <time>2024-09-12T18:53:44+00:00</time>
      </trkpt>
      <trkpt lat="45.35694" lon="2.28125">
        <ele>598</ele>
        <time>2024-09-12T18:53:47+00:00</time>
      </trkpt>
      <trkpt lat="45.35672" lon="2.28155">
        <ele>595</ele>
        <time>2024-09-12T18:53:50+00:00</time>
      </trkpt>
      <trkpt lat="45.35634" lon="2.28208">
        <ele>593</ele>
        <time>2024-09-12T18:53:53+00:00</time>
      </trkpt>
      <trkpt lat="45.35615" lon="2.28238">
        <ele>583</ele>
        <time>2024-09-12T18:53:56+00:00</time>
      </trkpt>
      <trkpt lat="45.35587" lon="2.28283">
        <ele>572</ele>
        <time>2024-09-12T18:53:59+00:00</time>
      </trkpt>
      <trkpt lat="45.3557" lon="2.28312">
        <ele>569</ele>
        <time>2024-09-12T18:54:02+00:00</time>
      </trkpt>
      <trkpt lat="45.35546" lon="2.28352">
        <ele>567</ele>
        <time>2024-09-12T18:54:05+00:00</time>
      </trkpt>
      <trkpt lat="45.35517" lon="2.28396">
        <ele>567</ele>
        <time>2024-09-12T18:54:08+00:00</time>
      </trkpt>
      <trkpt lat="45.35545" lon="2.28405">
        <ele>567</ele>
        <time>2024-09-12T18:54:11+00:00</time>
      </trkpt>
      <trkpt lat="45.35573" lon="2.28409">
        <ele>570</ele>
        <time>2024-09-12T18:54:14+00:00</time>
      </trkpt>
      <trkpt lat="45.35599" lon="2.28439">
        <ele>570</ele>
        <time>2024-09-12T18:54:17+00:00</time>
      </trkpt>
      <trkpt lat="45.35612" lon="2.28469">
        <ele>573</ele>
        <time>2024-09-12T18:54:20+00:00</time>
      </trkpt>
      <trkpt lat="45.35625" lon="2.285">
        <ele>573</ele>
        <time>2024-09-12T18:54:23+00:00</time>
      </trkpt>
      <trkpt lat="45.35641" lon="2.28534">
        <ele>575</ele>
        <time>2024-09-12T18:54:26+00:00</time>
      </trkpt>
      <trkpt lat="45.35663" lon="2.28582">
        <ele>574</ele>
        <time>2024-09-12T18:54:29+00:00</time>
      </trkpt>
      <trkpt lat="45.35678" lon="2.28612">
        <ele>573</ele>
        <time>2024-09-12T18:54:32+00:00</time>
      </trkpt>
      <trkpt lat="45.35699" lon="2.28635">
        <ele>573</ele>
        <time>2024-09-12T18:54:35+00:00</time>
      </trkpt>
      <trkpt lat="45.35724" lon="2.28662">
        <ele>572</ele>
        <time>2024-09-12T18:54:38+00:00</time>
      </trkpt>
      <trkpt lat="45.35749" lon="2.28683">
        <ele>569</ele>
        <time>2024-09-12T18:54:41+00:00</time>
      </trkpt>
      <trkpt lat="45.35786" lon="2.28716">
        <ele>570</ele>
        <time>2024-09-12T18:54:44+00:00</time>
      </trkpt>
      <trkpt lat="45.35803" lon="2.28754">
        <ele>563</ele>
        <time>2024-09-12T18:54:47+00:00</time>
      </trkpt>
      <trkpt lat="45.35837" lon="2.28828">
        <ele>557</ele>
        <time>2024-09-12T18:54:50+00:00</time>
      </trkpt>
      <trkpt lat="45.35764" lon="2.2883">
        <ele>552</ele>
        <time>2024-09-12T18:54:53+00:00</time>
      </trkpt>
      <trkpt lat="45.35782" lon="2.28859">
        <ele>548</ele>
        <time>2024-09-12T18:54:56+00:00</time>
      </trkpt>
      <trkpt lat="45.35806" lon="2.28897">
        <ele>545</ele>
        <time>2024-09-12T18:54:59+00:00</time>
      </trkpt>
      <trkpt lat="45.35777" lon="2.28891">
        <ele>542</ele>
        <time>2024-09-12T18:55:02+00:00</time>
      </trkpt>
      <trkpt lat="45.35726" lon="2.2888">
        <ele>540</ele>
        <time>2024-09-12T18:55:05+00:00</time>
      </trkpt>
      <trkpt lat="45.35751" lon="2.28909">
        <ele>538</ele>
        <time>2024-09-12T18:55:08+00:00</time>
      </trkpt>
      <trkpt lat="45.35777" lon="2.28938">
        <ele>533</ele>
        <time>2024-09-12T18:55:11+00:00</time>
      </trkpt>
      <trkpt lat="45.35806" lon="2.28972">
        <ele>523</ele>
        <time>2024-09-12T18:55:14+00:00</time>
      </trkpt>
      <trkpt lat="45.35772" lon="2.28969">
        <ele>514</ele>
        <time>2024-09-12T18:55:17+00:00</time>
      </trkpt>
      <trkpt lat="45.35787" lon="2.28996">
        <ele>510</ele>
        <time>2024-09-12T18:55:20+00:00</time>
      </trkpt>
      <trkpt lat="45.35803" lon="2.29026">
        <ele>510</ele>
        <time>2024-09-12T18:55:23+00:00</time>
      </trkpt>
      <trkpt lat="45.35828" lon="2.29046">
        <ele>507</ele>
        <time>2024-09-12T18:55:26+00:00</time>
      </trkpt>
      <trkpt lat="45.35865" lon="2.29077">
        <ele>507</ele>
        <time>2024-09-12T18:55:29+00:00</time>
      </trkpt>
      <trkpt lat="45.35892" lon="2.29089">
        <ele>505</ele>
        <time>2024-09-12T18:55:32+00:00</time>
      </trkpt>
      <trkpt lat="45.35914" lon="2.29116">
        <ele>506</ele>
        <time>2024-09-12T18:55:35+00:00</time>
      </trkpt>
      <trkpt lat="45.35946" lon="2.29158">
        <ele>504</ele>
        <time>2024-09-12T18:55:38+00:00</time>
      </trkpt>
      <trkpt lat="45.35962" lon="2.29186">
        <ele>505</ele>
        <time>2024-09-12T18:55:41+00:00</time>
      </trkpt>
      <trkpt lat="45.3598" lon="2.29218">
        <ele>507</ele>
        <time>2024-09-12T18:55:44+00:00</time>
      </trkpt>
      <trkpt lat="45.36" lon="2.29257">
        <ele>508</ele>
        <time>2024-09-12T18:55:47+00:00</time>
      </trkpt>
      <trkpt lat="45.36036" lon="2.29285">
        <ele>508</ele>
        <time>2024-09-12T18:55:50+00:00</time>
      </trkpt>
      <trkpt lat="45.36072" lon="2.29283">
        <ele>505</ele>
        <time>2024-09-12T18:55:53+00:00</time>
      </trkpt>
      <trkpt lat="45.36114" lon="2.29263">
        <ele>506</ele>
        <time>2024-09-12T18:55:56+00:00</time>
      </trkpt>
      <trkpt lat="45.36146" lon="2.29238">
        <ele>507</ele>
        <time>2024-09-12T18:55:59+00:00</time>
      </trkpt>
      <trkpt lat="45.36178" lon="2.29214">
        <ele>514</ele>
        <time>2024-09-12T18:56:02+00:00</time>
      </trkpt>
      <trkpt lat="45.3621" lon="2.29189">
        <ele>514</ele>
        <time>2024-09-12T18:56:05+00:00</time>
      </trkpt>
      <trkpt lat="45.36249" lon="2.29159">
        <ele>515</ele>
        <time>2024-09-12T18:56:08+00:00</time>
      </trkpt>
      <trkpt lat="45.36273" lon="2.29163">
        <ele>516</ele>
        <time>2024-09-12T18:56:11+00:00</time>
      </trkpt>
      <trkpt lat="45.363" lon="2.29168">
        <ele>516</ele>
        <time>2024-09-12T18:56:14+00:00</time>
      </trkpt>
      <trkpt lat="45.36326" lon="2.29192">
        <ele>515</ele>
        <time>2024-09-12T18:56:17+00:00</time>
      </trkpt>
      <trkpt lat="45.36337" lon="2.29182">
        <ele>515</ele>
        <time>2024-09-12T18:56:20+00:00</time>
      </trkpt>
      <trkpt lat="45.36365" lon="2.29223">
        <ele>519</ele>
        <time>2024-09-12T18:56:23+00:00</time>
      </trkpt>
      <trkpt lat="45.36385" lon="2.29258">
        <ele>522</ele>
        <time>2024-09-12T18:56:26+00:00</time>
      </trkpt>
      <trkpt lat="45.3641" lon="2.29296">
        <ele>525</ele>
        <time>2024-09-12T18:56:29+00:00</time>
      </trkpt>
      <trkpt lat="45.36437" lon="2.29329">
        <ele>525</ele>
        <time>2024-09-12T18:56:32+00:00</time>
      </trkpt>
      <trkpt lat="45.36463" lon="2.29356">
        <ele>529</ele>
        <time>2024-09-12T18:56:35+00:00</time>
      </trkpt>
      <trkpt lat="45.36486" lon="2.29387">
        <ele>529</ele>
        <time>2024-09-12T18:56:38+00:00</time>
      </trkpt>
      <trkpt lat="45.36502" lon="2.29426">
        <ele>532</ele>
        <time>2024-09-12T18:56:41+00:00</time>
      </trkpt>
      <trkpt lat="45.36517" lon="2.29466">
        <ele>534</ele>
        <time>2024-09-12T18:56:44+00:00</time>
      </trkpt>
      <trkpt lat="45.36533" lon="2.29507">
        <ele>533</ele>
        <time>2024-09-12T18:56:47+00:00</time>
      </trkpt>
      <trkpt lat="45.36566" lon="2.29506">
        <ele>534</ele>
        <time>2024-09-12T18:56:50+00:00</time>
      </trkpt>
      <trkpt lat="45.36598" lon="2.29504">
        <ele>536</ele>
        <time>2024-09-12T18:56:53+00:00</time>
      </trkpt>
      <trkpt lat="45.36641" lon="2.29502">
        <ele>553</ele>
        <time>2024-09-12T18:56:56+00:00</time>
      </trkpt>
      <trkpt lat="45.36639" lon="2.29466">
        <ele>560</ele>
        <time>2024-09-12T18:56:59+00:00</time>
      </trkpt>
      <trkpt lat="45.36636" lon="2.29423">
        <ele>570</ele>
        <time>2024-09-12T18:57:02+00:00</time>
      </trkpt>
      <trkpt lat="45.36676" lon="2.29447">
        <ele>580</ele>
        <time>2024-09-12T18:57:05+00:00</time>
      </trkpt>
      <trkpt lat="45.36697" lon="2.29474">
        <ele>583</ele>
        <time>2024-09-12T18:57:08+00:00</time>
      </trkpt>
      <trkpt lat="45.36729" lon="2.29513">
        <ele>583</ele>
        <time>2024-09-12T18:57:11+00:00</time>
      </trkpt>
      <trkpt lat="45.36758" lon="2.29533">
        <ele>584</ele>
        <time>2024-09-12T18:57:14+00:00</time>
      </trkpt>
      <trkpt lat="45.36781" lon="2.29546">
        <ele>583</ele>
        <time>2024-09-12T18:57:17+00:00</time>
      </trkpt>
      <trkpt lat="45.36806" lon="2.2956">
        <ele>582</ele>
        <time>2024-09-12T18:57:20+00:00</time>
      </trkpt>
      <trkpt lat="45.36836" lon="2.29591">
        <ele>579</ele>
        <time>2024-09-12T18:57:23+00:00</time>
      </trkpt>
      <trkpt lat="45.36864" lon="2.2958">
        <ele>583</ele>
        <time>2024-09-12T18:57:26+00:00</time>
      </trkpt>
      <trkpt lat="45.369" lon="2.29559">
        <ele>587</ele>
        <time>2024-09-12T18:57:29+00:00</time>
      </trkpt>
      <trkpt lat="45.36937" lon="2.29545">
        <ele>586</ele>
        <time>2024-09-12T18:57:32+00:00</time>
      </trkpt>
      <trkpt lat="45.36963" lon="2.29522">
        <ele>586</ele>
        <time>2024-09-12T18:57:35+00:00</time>
      </trkpt>
      <trkpt lat="45.37001" lon="2.29506">
        <ele>586</ele>
        <time>2024-09-12T18:57:38+00:00</time>
      </trkpt>
      <trkpt lat="45.3703" lon="2.29501">
        <ele>584</ele>
        <time>2024-09-12T18:57:41+00:00</time>
      </trkpt>
      <trkpt lat="45.3708" lon="2.29492">
        <ele>583</ele>
        <time>2024-09-12T18:57:44+00:00</time>
      </trkpt>
      <trkpt lat="45.37104" lon="2.29493">
        <ele>583</ele>
        <time>2024-09-12T18:57:47+00:00</time>
      </trkpt>
      <trkpt lat="45.37128" lon="2.29494">
        <ele>583</ele>
        <time>2024-09-12T18:57:50+00:00</time>
      </trkpt>
      <trkpt lat="45.37154" lon="2.29497">
        <ele>584</ele>
        <time>2024-09-12T18:57:53+00:00</time>
      </trkpt>
      <trkpt lat="45.37184" lon="2.29501">
        <ele>589</ele>
        <time>2024-09-12T18:57:56+00:00</time>
      </trkpt>
      <trkpt lat="45.37207" lon="2.2951">
        <ele>589</ele>
        <time>2024-09-12T18:57:59+00:00</time>
      </trkpt>
      <trkpt lat="45.37232" lon="2.29521">
        <ele>587</ele>
        <time>2024-09-12T18:58:02+00:00</time>
      </trkpt>
      <trkpt lat="45.37254" lon="2.29553">
        <ele>585</ele>
        <time>2024-09-12T18:58:05+00:00</time>
      </trkpt>
      <trkpt lat="45.37252" lon="2.29589">
        <ele>584</ele>
        <time>2024-09-12T18:58:08+00:00</time>
      </trkpt>
      <trkpt lat="45.37239" lon="2.29654">
        <ele>583</ele>
        <time>2024-09-12T18:58:11+00:00</time>
      </trkpt>
      <trkpt lat="45.37257" lon="2.29687">
        <ele>584</ele>
        <time>2024-09-12T18:58:14+00:00</time>
      </trkpt>
      <trkpt lat="45.37284" lon="2.29739">
        <ele>585</ele>
        <time>2024-09-12T18:58:17+00:00</time>
      </trkpt>
      <trkpt lat="45.37301" lon="2.2977">
        <ele>590</ele>
        <time>2024-09-12T18:58:20+00:00</time>
      </trkpt>
      <trkpt lat="45.37324" lon="2.29813">
        <ele>598</ele>
        <time>2024-09-12T18:58:23+00:00</time>
      </trkpt>
      <trkpt lat="45.37362" lon="2.29838">
        <ele>595</ele>
        <time>2024-09-12T18:58:26+00:00</time>
      </trkpt>
      <trkpt lat="45.37383" lon="2.29859">
        <ele>593</ele>
        <time>2024-09-12T18:58:29+00:00</time>
      </trkpt>
      <trkpt lat="45.37409" lon="2.29884">
        <ele>583</ele>
        <time>2024-09-12T18:58:32+00:00</time>
      </trkpt>
      <trkpt lat="45.37437" lon="2.29888">
        <ele>582</ele>
        <time>2024-09-12T18:58:35+00:00</time>
      </trkpt>
      <trkpt lat="45.37477" lon="2.29894">
        <ele>584</ele>
        <time>2024-09-12T18:58:38+00:00</time>
      </trkpt>
      <trkpt lat="45.37489" lon="2.29864">
        <ele>587</ele>
        <time>2024-09-12T18:58:41+00:00</time>
      </trkpt>
      <trkpt lat="45.37521" lon="2.29832">
        <ele>589</ele>
        <time>2024-09-12T18:58:44+00:00</time>
      </trkpt>
      <trkpt lat="45.37477" lon="2.29826">
        <ele>591</ele>
        <time>2024-09-12T18:58:47+00:00</time>
      </trkpt>
      <trkpt lat="45.37433" lon="2.29817">
        <ele>599</ele>
        <time>2024-09-12T18:58:50+00:00</time>
      </trkpt>
      <trkpt lat="45.37409" lon="2.29791">
        <ele>598</ele>
        <time>2024-09-12T18:58:53+00:00</time>
      </trkpt>
      <trkpt lat="45.37439" lon="2.29696">
        <ele>599</ele>
        <time>2024-09-12T18:58:56+00:00</time>
      </trkpt>
      <trkpt lat="45.37456" lon="2.29665">
        <ele>598</ele>
        <time>2024-09-12T18:58:59+00:00</time>
      </trkpt>
      <trkpt lat="45.37479" lon="2.29624">
        <ele>598</ele>
        <time>2024-09-12T18:59:02+00:00</time>
      </trkpt>
      <trkpt lat="45.37503" lon="2.29583">
        <ele>599</ele>
        <time>2024-09-12T18:59:05+00:00</time>
      </trkpt>
      <trkpt lat="45.37526" lon="2.29543">
        <ele>608</ele>
        <time>2024-09-12T18:59:08+00:00</time>
      </trkpt>
      <trkpt lat="45.3755" lon="2.29502">
        <ele>604</ele>
        <time>2024-09-12T18:59:11+00:00</time>
      </trkpt>
      <trkpt lat="45.37589" lon="2.29437">
        <ele>603</ele>
        <time>2024-09-12T18:59:14+00:00</time>
      </trkpt>
      <trkpt lat="45.37622" lon="2.29441">
        <ele>604</ele>
        <time>2024-09-12T18:59:17+00:00</time>
      </trkpt>
      <trkpt lat="45.37649" lon="2.29427">
        <ele>605</ele>
        <time>2024-09-12T18:59:20+00:00</time>
      </trkpt>
      <trkpt lat="45.37657" lon="2.29397">
        <ele>604</ele>
        <time>2024-09-12T18:59:23+00:00</time>
      </trkpt>
      <trkpt lat="45.37674" lon="2.29383">
        <ele>604</ele>
        <time>2024-09-12T18:59:26+00:00</time>
      </trkpt>
      <trkpt lat="45.37698" lon="2.29382">
        <ele>604</ele>
        <time>2024-09-12T18:59:29+00:00</time>
      </trkpt>
      <trkpt lat="45.37717" lon="2.29416">
        <ele>604</ele>
        <time>2024-09-12T18:59:32+00:00</time>
      </trkpt>
      <trkpt lat="45.37727" lon="2.29446">
        <ele>607</ele>
        <time>2024-09-12T18:59:35+00:00</time>
      </trkpt>
      <trkpt lat="45.3774" lon="2.29473">
        <ele>607</ele>
        <time>2024-09-12T18:59:38+00:00</time>
      </trkpt>
      <trkpt lat="45.3776" lon="2.29503">
        <ele>603</ele>
        <time>2024-09-12T18:59:41+00:00</time>
      </trkpt>
      <trkpt lat="45.37781" lon="2.29528">
        <ele>600</ele>
        <time>2024-09-12T18:59:44+00:00</time>
      </trkpt>
      <trkpt lat="45.37813" lon="2.2952">
        <ele>598</ele>
        <time>2024-09-12T18:59:47+00:00</time>
      </trkpt>
      <trkpt lat="45.37835" lon="2.29503">
        <ele>598</ele>
        <time>2024-09-12T18:59:50+00:00</time>
      </trkpt>
      <trkpt lat="45.37862" lon="2.295">
        <ele>598</ele>
        <time>2024-09-12T18:59:53+00:00</time>
      </trkpt>
      <trkpt lat="45.37882" lon="2.29516">
        <ele>597</ele>
        <time>2024-09-12T18:59:56+00:00</time>
      </trkpt>
      <trkpt lat="45.37892" lon="2.29543">
        <ele>597</ele>
        <time>2024-09-12T18:59:59+00:00</time>
      </trkpt>
      <trkpt lat="45.37898" lon="2.2957">
        <ele>597</ele>
        <time>2024-09-12T19:00:02+00:00</time>
      </trkpt>
      <trkpt lat="45.37914" lon="2.29597">
        <ele>597</ele>
        <time>2024-09-12T19:00:05+00:00</time>
      </trkpt>
      <trkpt lat="45.37935" lon="2.29604">
        <ele>596</ele>
        <time>2024-09-12T19:00:08+00:00</time>
      </trkpt>
      <trkpt lat="45.37973" lon="2.29607">
        <ele>593</ele>
        <time>2024-09-12T19:00:11+00:00</time>
      </trkpt>
      <trkpt lat="45.38009" lon="2.29603">
        <ele>593</ele>
        <time>2024-09-12T19:00:14+00:00</time>
      </trkpt>
      <trkpt lat="45.38033" lon="2.29586">
        <ele>594</ele>
        <time>2024-09-12T19:00:17+00:00</time>
      </trkpt>
      <trkpt lat="45.38046" lon="2.29563">
        <ele>597</ele>
        <time>2024-09-12T19:00:20+00:00</time>
      </trkpt>
      <trkpt lat="45.38047" lon="2.29524">
        <ele>598</ele>
        <time>2024-09-12T19:00:23+00:00</time>
      </trkpt>
      <trkpt lat="45.38051" lon="2.29496">
        <ele>599</ele>
        <time>2024-09-12T19:00:26+00:00</time>
      </trkpt>
      <trkpt lat="45.38065" lon="2.29474">
        <ele>600</ele>
        <time>2024-09-12T19:00:29+00:00</time>
      </trkpt>
      <trkpt lat="45.38102" lon="2.29452">
        <ele>606</ele>
        <time>2024-09-12T19:00:32+00:00</time>
      </trkpt>
      <trkpt lat="45.38122" lon="2.29455">
        <ele>606</ele>
        <time>2024-09-12T19:00:35+00:00</time>
      </trkpt>
      <trkpt lat="45.38155" lon="2.29478">
        <ele>603</ele>
        <time>2024-09-12T19:00:38+00:00</time>
      </trkpt>
      <trkpt lat="45.38174" lon="2.29495">
        <ele>601</ele>
        <time>2024-09-12T19:00:41+00:00</time>
      </trkpt>
      <trkpt lat="45.38187" lon="2.29533">
        <ele>597</ele>
        <time>2024-09-12T19:00:44+00:00</time>
      </trkpt>
      <trkpt lat="45.38201" lon="2.29559">
        <ele>600</ele>
        <time>2024-09-12T19:00:47+00:00</time>
      </trkpt>
      <trkpt lat="45.38252" lon="2.29572">
        <ele>604</ele>
        <time>2024-09-12T19:00:50+00:00</time>
      </trkpt>
      <trkpt lat="45.38274" lon="2.29596">
        <ele>604</ele>
        <time>2024-09-12T19:00:53+00:00</time>
      </trkpt>
      <trkpt lat="45.38291" lon="2.29618">
        <ele>604</ele>
        <time>2024-09-12T19:00:56+00:00</time>
      </trkpt>
      <trkpt lat="45.38315" lon="2.29642">
        <ele>598</ele>
        <time>2024-09-12T19:00:59+00:00</time>
      </trkpt>
      <trkpt lat="45.38353" lon="2.29624">
        <ele>598</ele>
        <time>2024-09-12T19:01:02+00:00</time>
      </trkpt>
      <trkpt lat="45.3837" lon="2.29601">
        <ele>598</ele>
        <time>2024-09-12T19:01:05+00:00</time>
      </trkpt>
      <trkpt lat="45.38399" lon="2.29585">
        <ele>598</ele>
        <time>2024-09-12T19:01:08+00:00</time>
      </trkpt>
      <trkpt lat="45.38432" lon="2.29568">
        <ele>595</ele>
        <time>2024-09-12T19:01:11+00:00</time>
      </trkpt>
      <trkpt lat="45.38465" lon="2.29547">
        <ele>593</ele>
        <time>2024-09-12T19:01:14+00:00</time>
      </trkpt>
      <trkpt lat="45.38499" lon="2.29522">
        <ele>593</ele>
        <time>2024-09-12T19:01:17+00:00</time>
      </trkpt>
      <trkpt lat="45.38523" lon="2.29499">
        <ele>598</ele>
        <time>2024-09-12T19:01:20+00:00</time>
      </trkpt>
      <trkpt lat="45.38543" lon="2.29453">
        <ele>603</ele>
        <time>2024-09-12T19:01:23+00:00</time>
      </trkpt>
      <trkpt lat="45.38547" lon="2.29393">
        <ele>607</ele>
        <time>2024-09-12T19:01:26+00:00</time>
      </trkpt>
      <trkpt lat="45.38533" lon="2.29363">
        <ele>608</ele>
        <time>2024-09-12T19:01:29+00:00</time>
      </trkpt>
      <trkpt lat="45.38517" lon="2.29327">
        <ele>611</ele>
        <time>2024-09-12T19:01:32+00:00</time>
      </trkpt>
      <trkpt lat="45.38494" lon="2.29305">
        <ele>609</ele>
        <time>2024-09-12T19:01:35+00:00</time>
      </trkpt>
      <trkpt lat="45.38463" lon="2.29273">
        <ele>607</ele>
        <time>2024-09-12T19:01:38+00:00</time>
      </trkpt>
      <trkpt lat="45.38461" lon="2.29239">
        <ele>608</ele>
        <time>2024-09-12T19:01:41+00:00</time>
      </trkpt>
      <trkpt lat="45.38472" lon="2.29208">
        <ele>609</ele>
        <time>2024-09-12T19:01:44+00:00</time>
      </trkpt>
      <trkpt lat="45.385" lon="2.29205">
        <ele>608</ele>
        <time>2024-09-12T19:01:47+00:00</time>
      </trkpt>
      <trkpt lat="45.38541" lon="2.29225">
        <ele>607</ele>
        <time>2024-09-12T19:01:50+00:00</time>
      </trkpt>
      <trkpt lat="45.3857" lon="2.29231">
        <ele>599</ele>
        <time>2024-09-12T19:01:53+00:00</time>
      </trkpt>
      <trkpt lat="45.38618" lon="2.29241">
        <ele>596</ele>
        <time>2024-09-12T19:01:56+00:00</time>
      </trkpt>
      <trkpt lat="45.3863" lon="2.29216">
        <ele>594</ele>
        <time>2024-09-12T19:01:59+00:00</time>
      </trkpt>
      <trkpt lat="45.38624" lon="2.29191">
        <ele>596</ele>
        <time>2024-09-12T19:02:02+00:00</time>
      </trkpt>
      <trkpt lat="45.38638" lon="2.29169">
        <ele>595</ele>
        <time>2024-09-12T19:02:05+00:00</time>
      </trkpt>
      <trkpt lat="45.3866" lon="2.29142">
        <ele>595</ele>
        <time>2024-09-12T19:02:08+00:00</time>
      </trkpt>
      <trkpt lat="45.38685" lon="2.29116">
        <ele>594</ele>
        <time>2024-09-12T19:02:11+00:00</time>
      </trkpt>
      <trkpt lat="45.38707" lon="2.29101">
        <ele>597</ele>
        <time>2024-09-12T19:02:14+00:00</time>
      </trkpt>
      <trkpt lat="45.38739" lon="2.29062">
        <ele>601</ele>
        <time>2024-09-12T19:02:17+00:00</time>
      </trkpt>
      <trkpt lat="45.38744" lon="2.29074">
        <ele>602</ele>
        <time>2024-09-12T19:02:20+00:00</time>
      </trkpt>
      <trkpt lat="45.38769" lon="2.29079">
        <ele>602</ele>
        <time>2024-09-12T19:02:23+00:00</time>
      </trkpt>
      <trkpt lat="45.38797" lon="2.29085">
        <ele>602</ele>
        <time>2024-09-12T19:02:26+00:00</time>
      </trkpt>
      <trkpt lat="45.38822" lon="2.2911">
        <ele>602</ele>
        <time>2024-09-12T19:02:29+00:00</time>
      </trkpt>
      <trkpt lat="45.38839" lon="2.29155">
        <ele>602</ele>
        <time>2024-09-12T19:02:32+00:00</time>
      </trkpt>
      <trkpt lat="45.38914" lon="2.29202">
        <ele>589</ele>
        <time>2024-09-12T19:02:35+00:00</time>
      </trkpt>
      <trkpt lat="45.38925" lon="2.29224">
        <ele>588</ele>
        <time>2024-09-12T19:02:38+00:00</time>
      </trkpt>
      <trkpt lat="45.38925" lon="2.29262">
        <ele>589</ele>
        <time>2024-09-12T19:02:41+00:00</time>
      </trkpt>
      <trkpt lat="45.38925" lon="2.2931">
        <ele>589</ele>
        <time>2024-09-12T19:02:44+00:00</time>
      </trkpt>
      <trkpt lat="45.38966" lon="2.29285">
        <ele>590</ele>
        <time>2024-09-12T19:02:47+00:00</time>
      </trkpt>
      <trkpt lat="45.38984" lon="2.29245">
        <ele>590</ele>
        <time>2024-09-12T19:02:50+00:00</time>
      </trkpt>
      <trkpt lat="45.39011" lon="2.29212">
        <ele>592</ele>
        <time>2024-09-12T19:02:53+00:00</time>
      </trkpt>
      <trkpt lat="45.3899" lon="2.29238">
        <ele>592</ele>
        <time>2024-09-12T19:02:56+00:00</time>
      </trkpt>
    </trkseg>
  </trk>
</gpx>